Madison, WI

7:20 PM CST on February 10, 2016 (GMT -0600)
Dane County Regional-Truax

Weather History for KMSN - April, 2014

Change the Weather History Date:

Thursday, April 10, 2014

  Actual Average Record
Temperature  
Mean Temperature 51 °F 44 °F  
Max Temperature 64 °F 55 °F 89 °F (1930)
Min Temperature 38 °F 34 °F 18 °F (1960)
Degree Days  
Heating Degree Days 14 21  
Month to date heating degree days 220 226  
Since 1 July heating degree days 7480 6675  
Cooling Degree Days 0 0  
Month to date cooling degree days 0 0  
Year to date cooling degree days 0 0  
Growing Degree Days 5 (Base 50)    
Moisture  
Dew Point 26 °F    
Average Humidity 37    
Maximum Humidity 59    
Minimum Humidity 14    
Precipitation  
Precipitation T in 0.11 in 2.34 in (1879)
Month to date precipitation 0.27 1.07  
Year to date precipitation 3.42 5.95  
Snow  
Snow 0.00 in 0.10 in 0.80 in (1973)
Month to date snowfall T 1.3  
Since 1 July snowfall 58.2 49.4  
Snow Depth 0.00 in    
Sea Level Pressure  
Sea Level Pressure 29.75 in    
Wind  
Wind Speed 8 mph (West)    
Max Wind Speed 21 mph    
Max Gust Speed 27 mph    
Visibility 10 miles    
Events      
T = Trace of Precipitation, MM = Missing Value Source: NWS Daily Summary

Daily Weather History Graph

Daily Weather History Graph

Search for Another Location

Airport or City:

Trip Planner

Search our weather history database for the weather conditions in past years. The results will help you decide how hot, cold, wet, or windy it might be!

Date:

Astronomy

Apr. 10, 2014 Rise Set
Actual Time 6:23 AM CDT 7:34 PM CDT
Civil Twilight 5:54 AM CDT 8:03 PM CDT
Nautical Twilight 5:19 AM CDT 8:38 PM CDT
Astronomical Twilight 4:42 AM CDT 9:15 PM CDT
Moon 3:11 PM CDT (4/10) 3:53 AM CDT (4/10)
Length of Visible Light 14h 09m
Length of Day
13h 10m
Waxing Gibbous, 80% of the Moon is Illuminated
Apr 10
Waxing Gibbous
Apr 15
Full
Apr 22
Last Quarter
Apr 29
New
May 6
First Quarter

Hourly Weather History & Observations

Time (CDT) Temp. Windchill Dew Point Humidity Pressure Visibility Wind Dir Wind Speed Gust Speed Precip Events Conditions
12:53 AM 54.0 °F - 30.9 °F 41% 29.71 in 10.0 mi South 12.7 mph 21.9 mph N/A   Clear
1:53 AM 53.1 °F - 30.9 °F 43% 29.67 in 10.0 mi South 13.8 mph - N/A   Clear
2:53 AM 52.0 °F - 30.9 °F 45% 29.64 in 10.0 mi South 13.8 mph - N/A   Clear
3:53 AM 51.1 °F - 32.0 °F 48% 29.62 in 10.0 mi South 12.7 mph - N/A   Clear
4:53 AM 51.1 °F - 32.0 °F 48% 29.65 in 10.0 mi North - - N/A   Clear
5:53 AM 51.1 °F - 32.0 °F 48% 29.63 in 10.0 mi SSW 9.2 mph - N/A   Scattered Clouds
6:53 AM 48.9 °F - 32.0 °F 52% 29.65 in 10.0 mi Calm Calm - N/A   Mostly Cloudy
7:53 AM 52.0 °F - 34.0 °F 50% 29.65 in 10.0 mi Variable 4.6 mph - N/A   Mostly Cloudy
8:53 AM 55.4 °F - 35.6 °F 47% 29.68 in 10.0 mi Variable 5.8 mph - N/A   Overcast
9:53 AM 57.0 °F - 36.0 °F 45% 29.68 in 10.0 mi NW 8.1 mph - N/A   Overcast
10:53 AM 57.9 °F - 32.0 °F 37% 29.73 in 10.0 mi NW 13.8 mph 24.2 mph 0.00 in   Overcast
11:53 AM 60.1 °F - 30.9 °F 33% 29.74 in 10.0 mi NW 12.7 mph 21.9 mph N/A   Mostly Cloudy
12:53 PM 61.0 °F - 19.9 °F 21% 29.75 in 10.0 mi NW 15.0 mph 23.0 mph N/A   Mostly Cloudy
1:53 PM 61.0 °F - 19.0 °F 20% 29.76 in 10.0 mi NW 11.5 mph - N/A   Mostly Cloudy
2:53 PM 62.1 °F - 18.0 °F 18% 29.78 in 10.0 mi WNW 10.4 mph 21.9 mph N/A   Mostly Cloudy
3:53 PM 62.1 °F - 14.0 °F 15% 29.78 in 10.0 mi WNW 11.5 mph 18.4 mph N/A   Mostly Cloudy
4:53 PM 62.1 °F - 14.0 °F 15% 29.80 in 10.0 mi Variable 5.8 mph - N/A   Mostly Cloudy
5:53 PM 63.0 °F - 17.1 °F 17% 29.82 in 10.0 mi WNW 12.7 mph - N/A   Scattered Clouds
6:53 PM 61.0 °F - 18.0 °F 19% 29.84 in 10.0 mi Variable 5.8 mph - N/A   Partly Cloudy
7:53 PM 55.0 °F - 21.0 °F 27% 29.86 in 10.0 mi West 3.5 mph - N/A   Partly Cloudy
8:53 PM 50.0 °F - 19.9 °F 31% 29.89 in 10.0 mi West 3.5 mph - N/A   Partly Cloudy
9:53 PM 46.9 °F - 19.0 °F 33% 29.92 in 10.0 mi WNW 4.6 mph - N/A   Scattered Clouds
10:53 PM 46.9 °F - 19.9 °F 34% 29.94 in 10.0 mi NNE 3.5 mph - N/A   Mostly Cloudy
11:53 PM 37.9 °F 32.7 °F 24.1 °F 57% 29.96 in 10.0 mi ENE 6.9 mph - N/A   Clear